CDT,Max TemperatureF,Mean TemperatureF,Min TemperatureF,Max Dew PointF,MeanDew PointF,Min DewpointF,Max Humidity, Mean Humidity, Min Humidity, Max Sea Level PressureIn, Mean Sea Level PressureIn, Min Sea Level PressureIn, Max VisibilityMiles, Mean VisibilityMiles, Min VisibilityMiles, Max Wind SpeedMPH, Mean Wind SpeedMPH, Max Gust SpeedMPH,PrecipitationIn, CloudCover, Events, WindDirDegrees
2014-3-1,62,50,37,54,47,32,100,95,72,30.05,29.95,29.90,10,4,2,22,7,31,0.00,8,,71
2014-3-2,35,25,15,32,22,10,98,91,78,30.40,30.19,30.06,10,6,1,22,16,30,0.00,7,Snow-Thunderstorm,3
2014-3-3,30,20,10,23,12,5,93,76,55,30.50,30.39,30.31,10,10,7,18,13,25,0.00,3,Snow,356
2014-3-4,50,34,18,30,22,16,93,77,43,30.31,30.17,30.02,10,10,10,10,2,,0.00,0,,126
2014-3-5,55,42,30,39,33,29,100,84,44,30.23,30.09,30.03,10,8,4,14,6,18,0.03,2,Rain,79
2014-3-6,51,40,30,39,36,31,100,90,62,30.27,30.17,30.02,10,6,1,12,7,,0.00,5,,349
2014-3-7,66,47,28,43,36,28,100,80,40,30.03,29.93,29.79,10,6,1,23,4,29,0.00,0,,129
2014-3-8,52,44,36,45,40,33,93,82,69,30.32,30.03,29.87,10,9,3,17,7,24,0.00,4,Rain,54
2014-3-9,62,49,36,43,35,32,96,77,45,30.35,30.28,30.15,10,10,7,10,7,,0.00,5,,358
2014-3-10,78,54,30,48,36,30,100,78,24,30.16,30.05,29.82,10,8,1,15,2,20,0.00,0,,188
2014-3-11,84,68,51,55,49,37,94,67,19,29.82,29.69,29.47,10,10,5,37,9,51,0.00,1,,202
2014-3-12,60,48,35,38,31,23,80,56,25,30.30,30.13,29.84,10,10,7,37,22,52,0.00,2,,351
2014-3-13,69,48,26,31,29,27,100,66,21,30.30,30.19,30.02,10,10,2,14,2,23,0.00,0,,180
2014-3-14,72,59,47,50,39,30,79,54,38,30.02,29.99,29.93,10,10,10,14,6,20,0.00,0,,167
2014-3-15,66,58,50,61,53,50,100,90,79,29.99,29.89,29.73,10,10,7,13,6,16,0.00,2,Rain-Thunderstorm,98
2014-3-16,55,47,39,54,43,32,100,86,66,30.10,29.90,29.77,10,10,7,32,12,40,0.00,7,Rain,340
2014-3-17,61,45,30,34,31,27,93,67,31,30.10,29.92,29.65,10,10,10,12,7,,0.00,0,,5
2014-3-18,81,64,47,41,35,30,62,45,20,29.92,29.63,29.53,10,10,5,26,13,38,0.00,1,,172
2014-3-19,64,50,37,37,33,28,81,59,27,30.23,30.11,29.94,10,10,10,22,11,36,0.00,0,,332
2014-3-20,71,50,30,36,33,30,100,67,25,30.23,30.13,29.97,10,9,1,15,2,20,0.00,0,,158
2014-3-21,79,64,50,57,43,35,64,52,38,29.98,29.89,29.78,10,10,10,21,7,28,0.00,3,,126
2014-3-22,63,58,51,39,35,34,58,45,33,30.18,30.04,29.97,10,10,10,18,13,26,0.00,6,,29
2014-3-23,54,46,37,36,27,19,69,48,35,30.42,30.28,30.19,10,10,7,21,14,31,0.00,3,,18
2014-3-24,66,48,30,37,31,25,100,67,26,30.27,30.19,30.05,10,10,7,23,3,34,0.00,0,,345
2014-3-25,60,46,33,33,31,28,82,61,34,30.41,30.29,30.22,10,10,5,15,7,21,0.00,0,,31
2014-3-26,57,47,38,52,38,31,93,75,54,30.22,30.08,29.84,10,9,4,14,6,22,0.00,3,Rain,128
2014-3-27,82,68,53,63,53,43,100,76,25,29.83,29.74,29.63,10,10,5,23,13,31,0.00,-245,,179
2014-3-28,64,56,48,55,45,41,82,63,55,30.11,29.86,29.75,10,10,10,132,11,22,0.00,4,,32
2014-3-29,71,55,39,43,38,30,89,69,22,30.29,30.19,30.10,10,10,7,9,5,,0.00,0,,350
2014-3-30,78,56,35,46,39,34,93,65,28,30.22,30.12,29.92,10,10,10,16,3,22,0.00,0,,160
2014-3-31,79,66,55,61,53,46,82,66,50,29.91,29.87,29.79,10,10,10,16,11,23,0.00,1,,154